Regional Weather Roundup
Issued by NWS State College, PA

Home | Current Version | Previous Version | Text Only | Print | Product List | Glossary On
Versions: 1 2 3 4 5 6 7 8 9 10 11 12 13 14 15 16 17 18 19 20 21 22 23 24 25 26 27 28 29 30 31 32 33 34 35 36 37 38 39 40 41 42 43 44 45 46 47 48 49 50
000
ASUS41 KCTP 051610
RWRCTP

REGIONAL WEATHER ROUNDUP
NATIONAL WEATHER SERVICE STATE COLLEGE PA
1200 PM EDT SAT SEP 05 2015

Note: "fair" indicates few or no clouds below 12,000 feet with no
significant weather and/or obstructions to visibility.

* = STATION THAT DOES NOT REPORT PRECIPITATION /E.G. RAIN...SNOW...ETC/
    THUNDER OR FOG.

PAZ002>004-007>009-013>016-020>023-029>032-051700-
WESTERN PENNSYLVANIA

CITY           SKY/WX    TMP DP  RH WIND       PRES   REMARKS
ERIE           SUNNY     85  64  49 SW10      30.18S
MEADVILLE      SUNNY     80  67  64 VRB7      30.22S HAZE
FRANKLIN*      PTSUNNY   79  68  69 SE9       30.25S
NEW CASTLE     FAIR      81  71  71 CALM      30.21F
BEAVER COUNTY  SUNNY     82  68  61 S8        30.21F
BUTLER*        SUNNY     81  68  65 S8        30.24S
PITTSBURGH INT MOSUNNY   83  65  54 S8        30.21S
PITTSBURGH     MOSUNNY   83  61  47 S9        30.21S
INDIANA*       SUNNY     81  68  65 SE7G16    30.26F
LATROBE        MOSUNNY   82  66  57 SE8       30.23S
WASHINGTON CO* SUNNY     81  66  61 SE6       30.23R
$$

PAZ004>006-010>012-017>019-024>028-033>037-041-042-045-046-049>053-051700-
CENTRAL PENNSYLVANIA

CITY           SKY/WX    TMP DP  RH WIND       PRES   REMARKS
BRADFORD       CLOUDY    74  64  71 S5        30.28F
DUBOIS         PTSUNNY   78  66  66 SE8       30.26S HAZE
CLEARFIELD     CLOUDY    75  66  73 VRB5      30.28S
JOHNSTOWN      PTSUNNY   72  65  78 SE7       30.29F
ALTOONA        CLOUDY    70  65  84 SE8       30.29S
STATE COLLEGE  CLOUDY    72  66  83 CALM      30.28S
WILLIAMSPORT   CLOUDY    73  63  70 E6        30.27S
SELINSGROVE    CLOUDY    75  62  64 E3        30.28S
FT INDIANTOWN  CLOUDY    75  62  62 VRB3      30.27F
CAPITAL CITY   PTSUNNY   76  61  59 CALM      30.27S
HARRISBURG     PTSUNNY   79  62  56 S5        30.26F
YORK           CLOUDY    77  64  64 CALM      30.27S
$$

PAZ038>040-043-044-047-048-054-055-060>062-067>071-051700-
EASTERN PENNSYLVANIA

CITY           SKY/WX    TMP DP  RH WIND       PRES   REMARKS
SCRANTON       SUNNY     78  62  57 CALM      30.28F
MOUNT POCONO   SUNNY     72  57  59 SE5       30.32F
ALLENTOWN      SUNNY     79  61  53 E5        30.27F
QUAKERTOWN*    SUNNY     77  59  53 E6        30.28F
READING        MOSUNNY   79  62  56 NW7       30.25F
LANCASTER      PTSUNNY   74  63  68 MISG      30.27F
COATESVILLE    MOSUNNY   75  64  69 N5        30.27F
POTTSTOWN      SUNNY     78  62  57 VRB7      30.27F
BLUE BELL      SUNNY     81  61  50 NE3       30.25F
DOYLESTOWN     SUNNY     77  59  53 N7        30.26F
WILLOW GROVE   NOT AVBL
NORTH PHILA    SUNNY     82  56  40 NE10      30.27F
PHILADELPHIA   MOSUNNY   81  59  47 N8        30.25S
$$


USA.gov is the U.S. government's official web portal to all federal, state and local government web resources and services.